Overview Statistics Trail Chart Weather Telemetry Raw packets
 

This is the latest recevied weather packets stored in our database for station/object W7BTL. If no packets are shown the sender has not sent any weather packets the latest 10 day(s).

<< 3 4 5 6 7 8 9 >>
Time Temp. Humidity Pressure Rain* Wind** Luminosity Snow
1788631774 29.44° C 39% 1013.9 hPa 0 mm - 871 W/m² -
1788631469 29.44° C 41% 1013.8 hPa 0 mm - 856 W/m² -
1788631164 29.44° C 45% 1014 hPa 0 mm - 846 W/m² -
1788630864 28.89° C 46% 1014 hPa 0 mm - 826 W/m² -
1788630559 28.89° C 46% 1014.2 hPa 0 mm - 812 W/m² -
1788630255 28.33° C 47% 1014.1 hPa 0 mm - 798 W/m² -
1788629950 28.33° C 47% 1014 hPa 0 mm - 785 W/m² -
1788629647 28.89° C 50% 1013.8 hPa 0 mm - 767 W/m² -
1788629347 28.89° C 50% 1013.9 hPa 0 mm - 745 W/m² -
1788629044 28.33° C 54% 1013.9 hPa 0 mm - 728 W/m² -
1788628740 28.33° C 52% 1013.9 hPa 0 mm - 710 W/m² -
1788628437 27.78° C 56% 1013.8 hPa 0 mm - 690 W/m² -
1788628133 27.22° C 55% 1014.1 hPa 0 mm - 672 W/m² -
1788627829 26.67° C 58% 1013.9 hPa 0 mm - 649 W/m² -
1788627528 26.67° C 61% 1014.1 hPa 0 mm - 628 W/m² -
1788627224 25° C 61% 1013.9 hPa 0 mm - 607 W/m² -
1788626918 25° C 64% 1014.2 hPa 0 mm - 588 W/m² -
1788626613 25° C 64% 1013.7 hPa 0 mm - 565 W/m² -
1788626309 24.44° C 65% 1013.9 hPa 0 mm - 544 W/m² -
1788626005 25° C 66% 1014.2 hPa 0 mm - 519 W/m² -
1788625701 25.56° C 63% 1013.8 hPa 0 mm - 498 W/m² -
1788625400 25.56° C 66% 1013.7 hPa 0 mm - 475 W/m² -
1788625095 25.56° C 63% 1013.7 hPa 0 mm - 451 W/m² -
1788624795 24.44° C 65% 1013.9 hPa 0 mm - 428 W/m² -
1788624493 25° C 66% 1013.8 hPa 0 mm - 403 W/m² -

* Rain latest hour (hover to see other rain measurements)
** Current wind speed in m/s (hover to see current wind gust speed)